This demonstration page uses our WeatherBlox Daily Observations layout. Learn more.

Left ArrowRight Arrow

Hourly Observations for April 11, 2020

Temp ( °F °C ) Dew Point ( °F °C ) Humidity (%) Winds ( mph kmh ) Pressure ( in mb ) Visibility ( mi km ) Precip ( " mm )
12:15 am 00:15 Clear 39 4 27 -3 61 61 NW 12 19 29.95 1014 10 16.0934 0 0
12:35 am 00:35 Clear 41 5 27 -3 57 57 NW 9 15 29.95 1014 10 16.0934 0 0
12:55 am 00:55 Clear 41 5 27 -3 57 57 WNW 8 13 29.95 1014 10 16.0934 0 0
1:15 am 01:15 Clear 41 5 27 -3 57 57 WNW 9 15 29.95 1014 10 16.0934 0 0
1:35 am 01:35 Clear 37 3 27 -3 65 65 NW 7 11 29.97 1015 10 16.0934 0 0
1:55 am 01:55 Clear 37 3 28 -2 70 70 WNW 7 11 29.97 1015 10 16.0934 0 0
2:15 am 02:15 Partly Cloudy 37 3 28 -2 70 70 WNW 6 9 29.97 1015 10 16.0934 0 0
2:35 am 02:35 Partly Cloudy 37 3 28 -2 70 70 W 3 6 29.98 1015 10 16.0934 0 0
2:55 am 02:55 Partly Cloudy 37 3 28 -2 70 70 WNW 8 13 29.99 1015 10 16.0934 0 0
3:15 am 03:15 Clear 37 3 28 -2 70 70 W 7 11 29.99 1015 10 16.0934 0 0
3:35 am 03:35 Clear 37 3 28 -2 70 70 W 6 9 30 1016 10 16.0934 0 0
3:55 am 03:55 Partly Cloudy 37 3 28 -2 70 70 W 5 7 30.01 1016 10 16.0934 0 0
4:15 am 04:15 Partly Cloudy 37 3 28 -2 70 70 W 5 7 30.01 1016 10 16.0934 0 0
4:35 am 04:35 Clear 37 3 28 -2 70 70 W 5 7 30.01 1016 10 16.0934 0 0
4:55 am 04:55 Clear 36 2 28 -2 75 75 W 3 6 30.02 1017 10 16.0934 0 0
5:15 am 05:15 Mostly Cloudy 37 3 28 -2 70 70 Calm 30.01 1016 10 16.0934 0 0
5:35 am 05:35 Mostly Cloudy 37 3 28 -2 70 70 S 3 6 30.02 1016 10 16.0934 0 0
5:55 am 05:55 Partly Cloudy 36 2 28 -2 75 75 SSW 6 9 30.02 1017 10 16.0934 0 0
6:15 am 06:15 Mostly Cloudy 36 2 28 -2 75 75 SW 6 9 30.03 1017 10 16.0934 0 0
6:35 am 06:35 Mostly Cloudy 36 2 28 -2 75 75 SSW 3 6 30.03 1017 10 16.0934 0 0
6:55 am 06:55 Partly Cloudy 36 2 28 -2 75 75 SW 5 7 30.04 1017 10 16.0934 0 0
7:15 am 07:15 Sunny 36 2 28 -2 75 75 SSW 3 6 30.04 1017 10 16.0934 0 0
7:35 am 07:35 Sunny 37 3 28 -2 70 70 S 3 6 30.05 1018 10 16.0934 0 0
7:55 am 07:55 Sunny 37 3 30 -1 75 75 S 5 7 30.05 1018 10 16.0934 0 0
8:15 am 08:15 Sunny 41 5 30 -1 66 66 S 5 7 30.05 1018 10 16.0934 0 0
8:35 am 08:35 Sunny 43 6 30 -1 61 61 SSW 3 6 30.05 1018 10 16.0934 0 0
8:55 am 08:55 Sunny 45 7 30 -1 57 57 Calm 30.05 1018 10 16.0934 0 0
9:15 am 09:15 Sunny 45 7 30 -1 57 57 WNW 8 13 30.05 1018 10 16.0934 0 0
9:35 am 09:35 Sunny 46 8 30 -1 53 53 NW 16 26 30.05 1018 10 16.0934 0 0
9:55 am 09:55 Sunny 48 9 30 -1 50 50 WNW 15 24 30.05 1018 10 16.0934 0 0
10:15 am 10:15 Partly Cloudy 50 10 30 -1 47 47 NW 14 22 30.05 1017 10 16.0934 0 0
10:35 am 10:35 Partly Cloudy 50 10 30 -1 47 47 WNW 13 20 30.05 1017 10 16.0934 0 0
10:55 am 10:55 Partly Cloudy 52 11 32 0 47 47 WNW 21 33 30.05 1018 10 16.0934 0 0
11:15 am 11:15 Partly Cloudy 52 11 32 0 47 47 NW 16 26 30.05 1018 10 16.0934 0 0
11:35 am 11:35 Partly Cloudy 52 11 30 -1 44 44 WNW 16 26 30.04 1017 10 16.0934 0 0
11:55 am 11:55 Partly Cloudy 54 12 32 0 44 44 NW 15 24 30.05 1018 10 16.0934 0 0
12:15 pm 12:15 Partly Cloudy 54 12 32 0 44 44 NW 13 20 30.04 1017 10 16.0934 0 0
12:35 pm 12:35 Partly Cloudy 54 12 32 0 44 44 WNW 14 22 30.03 1017 10 16.0934 0 0
12:55 pm 12:55 Partly Cloudy 54 12 32 0 44 44 NW 16 26 30.02 1017 10 16.0934 0 0
1:15 pm 13:15 Sunny 54 12 32 0 44 44 W 18 30 30.02 1017 10 16.0934 0 0
1:35 pm 13:35 Partly Cloudy 55 13 30 -1 38 38 WNW 20 31 30.01 1016 10 16.0934 0 0
1:55 pm 13:55 Partly Cloudy 55 13 32 0 41 41 NNW 8 13 30.01 1016 10 16.0934 0 0
2:15 pm 14:15 Partly Cloudy 57 14 32 0 39 39 W 12 19 30.01 1016 10 16.0934 0 0
2:35 pm 14:35 Mostly Cloudy 55 13 32 0 41 41 WNW 15 24 30 1016 10 16.0934 0 0
2:55 pm 14:55 Cloudy 55 13 32 0 41 41 WNW 13 20 30 1016 10 16.0934 0 0
3:15 pm 15:15 Cloudy 59 15 32 0 36 36 WNW 15 24 29.99 1016 10 16.0934 0 0
3:35 pm 15:35 Mostly Cloudy 61 16 32 0 34 34 WNW 20 31 29.98 1015 10 16.0934 0 0
3:55 pm 15:55 Partly Cloudy 59 15 30 -1 34 34 WNW 14 22 29.98 1015 10 16.0934 0 0
4:15 pm 16:15 Partly Cloudy 61 16 30 -1 31 31 W 16 26 29.97 1015 10 16.0934 0 0
4:35 pm 16:35 Sunny 61 16 32 0 34 34 NW 14 22 29.97 1015 10 16.0934 0 0
4:55 pm 16:55 Partly Cloudy 61 16 32 0 34 34 W 10 17 29.97 1015 10 16.0934 0 0
5:15 pm 17:15 Partly Cloudy 61 16 32 0 34 34 NW 9 15 29.97 1015 10 16.0934 0 0
5:35 pm 17:35 Partly Cloudy 61 16 32 0 34 34 NW 9 15 29.97 1015 10 16.0934 0 0
5:55 pm 17:55 Sunny 61 16 30 -1 31 31 WNW 14 22 29.97 1015 10 16.0934 0 0
6:15 pm 18:15 Sunny 61 16 30 -1 31 31 NW 7 11 29.98 1015 10 16.0934 0 0
6:35 pm 18:35 Sunny 59 15 30 -1 34 34 NW 14 22 29.98 1015 10 16.0934 0 0
6:55 pm 18:55 Sunny 59 15 30 -1 34 34 WNW 7 11 29.99 1016 10 16.0934 0 0
7:15 pm 19:15 Sunny 59 15 30 -1 34 34 NW 7 11 29.98 1015 10 16.0934 0 0
7:35 pm 19:35 Sunny 55 13 32 0 41 41 WNW 8 13 30 1016 10 16.0934 0 0
8:35 pm 20:35 Clear 52 11 32 0 47 47 NW 7 11 30.02 1017 10 16.0934 0 0
8:55 pm 20:55 Clear 54 12 30 -1 41 41 Calm 30.02 1017 10 16.0934 0 0
9:15 pm 21:15 Clear 54 12 30 -1 41 41 NNE 3 6 30.03 1017 10 16.0934 0 0
9:35 pm 21:35 Clear 50 10 34 1 54 54 NW 6 9 30.04 1017 10 16.0934 0 0
9:55 pm 21:55 Clear 52 11 32 0 47 47 Calm 30.04 1017 10 16.0934 0 0
10:15 pm 22:15 Clear 46 8 34 1 62 62 W 6 9 30.06 1018 10 16.0934 0 0
10:35 pm 22:35 Clear 45 7 34 1 66 66 Calm 30.07 1018 10 16.0934 0 0
10:55 pm 22:55 Clear 48 9 32 0 54 54 Calm 30.07 1018 10 16.0934 0 0
11:15 pm 23:15 Clear 46 8 34 1 62 62 NNE 5 7 30.09 1019 10 16.0934 0 0
11:35 pm 23:35 Clear 50 10 34 1 54 54 Calm 30.1 1019 10 16.0934 0 0
11:55 pm 23:55 Clear 45 7 36 2 71 71 NW 3 6 30.1 1019 10 16.0934 0 0

Powered by AerisWeather